CW4778 Auckland NZ current weather conditions

sailwx.info

Wind from 272 at 5 knots gusting 12

Air temperature 16.7° C
Dewpoint 8.6° C

Last reported at 2014-Oct-01 04:48 UTC.
Time now 2014-Oct-01 06:01 UTC

Location: S 36°52' E 174°44'.
View on Google Maps.

See reports from other nearby stations

  
Tides and Currents Weather Stations Pressure Air Temp Water Temp Dewpoint Dewpoint Depression Visibility Wind Speed Wind Dir Waves Ship Positions
date/time (UTC)wind fromknots sea level pressurealtimeterstation pressurevisibilityair tempwater tempwave heightnotes
2014-Oct-01 04:48 272 5 gusting 12 16.7
2014-Oct-01 04:38 275 4 gusting 12 16.7
2014-Oct-01 04:28 216 6 gusting 13 17.2
2014-Oct-01 04:18 297 5 gusting 10 17.8
2014-Oct-01 04:08 309 7 gusting 13 17.2
2014-Oct-01 03:58 177 7 gusting 13 17.2
2014-Oct-01 03:48 162 6 gusting 13 17.2
2014-Oct-01 03:38 179 6 gusting 15 17.2
2014-Oct-01 03:28 178 7 gusting 15 16.7
2014-Oct-01 03:18 194 8 gusting 17 17.2
2014-Oct-01 03:08 192 9 gusting 15 17.8
2014-Oct-01 02:58 201 9 gusting 18 17.8
2014-Oct-01 02:48 200 7 gusting 21 17.8
2014-Oct-01 02:38 167 10 gusting 15 17.8
2014-Oct-01 02:28 216 9 gusting 15 17.8
2014-Oct-01 02:18 169 10 gusting 15 17.8
2014-Oct-01 02:08 228 7 gusting 17 18.3
2014-Oct-01 01:58 202 7 gusting 13 18.3
2014-Oct-01 01:48 195 10 gusting 14 18.3
2014-Oct-01 01:38 239 6 gusting 13 18.9
2014-Oct-01 01:28 180 9 gusting 14 18.9
2014-Oct-01 01:18 168 7 gusting 13 19.4
2014-Oct-01 01:08 195 5 gusting 12 18.9
2014-Oct-01 00:58 254 6 gusting 13 19.4
2014-Oct-01 00:48 257 6 gusting 13 19.4
2014-Oct-01 00:38 214 6 gusting 13 19.4
2014-Oct-01 00:28 221 5 gusting 15 19.4
2014-Oct-01 00:18 207 6 gusting 13 19.4
2014-Oct-01 00:08 228 8 gusting 14 19.4
2014-Sep-30 23:58 191 8 gusting 13 18.9
2014-Sep-30 23:48 241 2 gusting 13 18.9
2014-Sep-30 23:38 183 9 gusting 19 18.3
2014-Sep-30 23:28 197 5 gusting 14 19.4
2014-Sep-30 23:18 182 6 gusting 14 19.4
2014-Sep-30 23:08 210 7 gusting 14 18.9
2014-Sep-30 22:58 240 5 gusting 17 18.9
2014-Sep-30 22:48 219 5 gusting 13 18.9
2014-Sep-30 22:38 178 7 gusting 15 18.9
2014-Sep-30 22:28 172 6 gusting 15 18.3
2014-Sep-30 22:18 163 6 gusting 14 18.3
2014-Sep-30 22:08 183 7 gusting 17 17.8
2014-Sep-30 21:58 180 7 gusting 18 17.2
2014-Sep-30 21:48 202 8 gusting 14 17.8
2014-Sep-30 21:38 182 7 gusting 17 17.2
2014-Sep-30 21:28 148 8 gusting 14 17.2
2014-Sep-30 21:18 201 6 gusting 18 17.8
2014-Sep-30 21:08 218 8 gusting 14 16.7
2014-Sep-30 20:58 215 8 gusting 14 17.2
2014-Sep-30 20:48 200 7 gusting 14 16.7
2014-Sep-30 20:38 191 5 gusting 14 16.7
2014-Sep-30 20:28 211 3 gusting 14 16.7
2014-Sep-30 20:18 182 7 gusting 15 16.1
2014-Sep-30 20:08 201 5 gusting 12 15.6
2014-Sep-30 19:58 203 6 gusting 13 15.0
2014-Sep-30 19:48 199 6 gusting 12 14.4
2014-Sep-30 19:38 189 5 gusting 12 13.9
2014-Sep-30 19:28 194 6 gusting 11 13.3
2014-Sep-30 19:18 208 3 gusting 7 13.3
2014-Sep-30 19:08 197 4 gusting 6 12.8
2014-Sep-30 18:58 206 0 gusting 6 12.2
2014-Sep-30 18:48 204 2 gusting 8 12.2
2014-Sep-30 18:38 176 2 gusting 13 11.7
2014-Sep-30 18:28 187 5 gusting 8 11.1
2014-Sep-30 18:18 187 5 gusting 8 11.1
2014-Sep-30 18:08 183 4 gusting 8 10.6
2014-Sep-30 17:58 199 3 gusting 8 10.6
2014-Sep-30 17:48 174 2 gusting 8 11.1
2014-Sep-30 17:38 183 5 gusting 11 11.1
2014-Sep-30 17:28 181 4 gusting 10 11.1
2014-Sep-30 17:18 176 6 gusting 11 11.7
2014-Sep-30 17:08 170 5 gusting 11 11.7
2014-Sep-30 16:58 177 7 gusting 13 11.7
2014-Sep-30 16:48 175 6 gusting 13 11.7
2014-Sep-30 16:38 166 6 gusting 13 11.7
2014-Sep-30 16:28 176 8 gusting 13 11.7
2014-Sep-30 16:18 179 6 gusting 11 11.1
2014-Sep-30 16:08 178 6 gusting 13 11.7
2014-Sep-30 15:58 182 6 gusting 15 11.7
2014-Sep-30 15:48 188 7 gusting 13 11.7
2014-Sep-30 15:38 187 6 gusting 13 11.7
2014-Sep-30 15:28 194 6 gusting 12 11.7
2014-Sep-30 15:18 176 6 gusting 12 11.7
2014-Sep-30 15:08 187 2 gusting 11 11.7
2014-Sep-30 14:58 191 5 gusting 11 11.1
2014-Sep-30 14:48 183 5 gusting 10 11.7
2014-Sep-30 14:38 191 5 gusting 8 11.7
2014-Sep-30 14:28 167 4 gusting 10 11.7
2014-Sep-30 14:18 169 2 gusting 11 11.7
2014-Sep-30 14:08 188 6 gusting 11 11.7
2014-Sep-30 13:58 165 4 gusting 6 11.7
2014-Sep-30 13:48 187 6 gusting 12 11.7
2014-Sep-30 13:38 190 6 gusting 15 11.7
2014-Sep-30 13:28 174 5 gusting 10 11.7
2014-Sep-30 13:18 169 6 gusting 10 11.7
2014-Sep-30 13:08 168 7 gusting 13 11.7
2014-Sep-30 12:58 164 6 gusting 13 11.7
2014-Sep-30 12:48 180 7 gusting 13 11.7
2014-Sep-30 12:38 175 5 gusting 12 11.1
2014-Sep-30 12:28 172 6 gusting 12 11.1
2014-Sep-30 12:18 171 6 gusting 11 11.7
2014-Sep-30 12:08 179 5 gusting 10 11.7
2014-Sep-30 11:58 181 4 gusting 11 11.7
2014-Sep-30 11:48 163 4 gusting 10 11.7
2014-Sep-30 11:38 176 4 gusting 13 11.7
2014-Sep-30 11:28 184 6 gusting 10 11.7
2014-Sep-30 11:18 107 6 gusting 7 11.7
2014-Sep-30 11:08 180 5 gusting 10 11.7
2014-Sep-30 10:58 178 4 gusting 8 12.2
2014-Sep-30 10:48 171 6 gusting 12 12.2
2014-Sep-30 10:38 197 4 gusting 8 12.2
2014-Sep-30 10:28 203 4 gusting 11 12.2
2014-Sep-30 10:18 210 4 gusting 13 12.2
2014-Sep-30 10:08 207 6 gusting 11 12.2
2014-Sep-30 09:58 172 5 gusting 11 12.2
2014-Sep-30 09:48 221 5 gusting 11 12.2
2014-Sep-30 09:38 201 6 gusting 13 12.2
2014-Sep-30 09:28 212 6 gusting 10 12.2
2014-Sep-30 09:18 178 4 gusting 11 12.2
2014-Sep-30 09:08 208 6 gusting 10 12.2
2014-Sep-30 08:58 217 5 gusting 13 12.2
2014-Sep-30 08:48 162 4 gusting 11 12.2
2014-Sep-30 08:38 213 3 gusting 11 12.2
2014-Sep-30 08:28 221 5 gusting 13 12.2
2014-Sep-30 08:18 190 5 gusting 13 12.2
2014-Sep-30 08:08 190 6 gusting 12 12.2
2014-Sep-30 07:58 199 7 gusting 12 12.2
2014-Sep-30 07:48 209 6 gusting 14 12.2
2014-Sep-30 07:38 209 7 gusting 13 12.2
2014-Sep-30 07:28 211 1 gusting 13 12.2
2014-Sep-30 07:18 204 6 gusting 13 12.2
2014-Sep-30 07:08 199 5 gusting 12 12.8
2014-Sep-30 06:58 187 6 gusting 17 12.8
2014-Sep-30 06:48 228 7 gusting 18 12.8
2014-Sep-30 06:38 220 7 gusting 13 12.8
2014-Sep-30 06:28 196 4 gusting 15 12.8
2014-Sep-30 06:18 191 4 gusting 13 12.8
2014-Sep-30 06:08 265 6 gusting 12 13.3
2014-Sep-30 05:58 198 10 gusting 18 13.3
2014-Sep-30 05:48 154 8 gusting 14 13.9
2014-Sep-30 04:48 186 8 gusting 19 15.6
2014-Sep-30 04:38 219 10 gusting 18 15.6
2014-Sep-30 04:28 227 6 gusting 19 15.6
2014-Sep-30 04:18 204 6 gusting 15 16.1
2014-Sep-30 04:08 223 8 gusting 14 16.1
2014-Sep-30 03:58 217 5 gusting 18 16.7
2014-Sep-30 03:48 213 4 gusting 12 16.7
2014-Sep-30 03:38 216 7 gusting 15 16.7
2014-Sep-30 03:28 188 8 gusting 15 16.7
2014-Sep-30 03:18 213 8 gusting 14 16.1
2014-Sep-30 03:08 195 9 gusting 19 15.6
2014-Sep-30 02:58 202 10 gusting 19 16.1
2014-Sep-30 02:48 179 7 gusting 15 15.6
2014-Sep-30 02:38 215 8 gusting 18 16.1
2014-Sep-30 02:28 185 7 gusting 17 16.7
2014-Sep-30 02:18 207 11 gusting 21 16.7
2014-Sep-30 02:08 198 7 gusting 18 17.2
2014-Sep-30 01:58 188 10 gusting 19 16.7
2014-Sep-30 01:48 210 9 gusting 18 17.8
2014-Sep-30 01:38 194 7 gusting 13 17.2
2014-Sep-30 01:28 211 10 gusting 18 17.8
2014-Sep-30 01:18 211 10 gusting 17 18.3
2014-Sep-30 01:08 187 8 gusting 18 18.3
2014-Sep-30 00:58 190 9 gusting 15 18.3
2014-Sep-30 00:48 191 5 gusting 15 18.3
2014-Sep-30 00:38 279 9 gusting 15 18.3
2014-Sep-30 00:28 262 7 gusting 14 18.3
2014-Sep-30 00:18 239 7 gusting 13 18.3
2014-Sep-30 00:08 176 8 gusting 13 18.3
2014-Sep-29 23:58 219 6 gusting 14 18.9
2014-Sep-29 23:48 211 8 gusting 17 18.3
2014-Sep-29 23:38 224 6 gusting 15 18.3
2014-Sep-29 23:28 191 8 gusting 13 18.3
2014-Sep-29 23:18 170 7 gusting 13 17.8
2014-Sep-29 23:08 190 7 gusting 13 17.8
2014-Sep-29 22:58 207 6 gusting 15 17.8
2014-Sep-29 22:48 197 10 gusting 19 16.7
2014-Sep-29 22:38 193 9 gusting 14 17.2
2014-Sep-29 22:28 160 7 gusting 14 17.2
2014-Sep-29 22:18 193 7 gusting 17 16.7
2014-Sep-29 22:08 207 1 gusting 11 17.2
2014-Sep-29 21:58 223 6 gusting 13 16.7
2014-Sep-29 21:48 181 6 gusting 13 16.7
2014-Sep-29 21:38 173 5 gusting 14 16.1
2014-Sep-29 21:28 147 6 gusting 13 15.6
2014-Sep-29 21:18 188 4 gusting 13 15.6
2014-Sep-29 21:08 159 6 gusting 12 15.0
2014-Sep-29 20:58 189 6 gusting 11 14.4
2014-Sep-29 20:48 188 4 gusting 11 15.0
2014-Sep-29 20:38 186 4 gusting 11 13.9
2014-Sep-29 20:28 215 4 gusting 12 13.9
2014-Sep-29 20:18 168 4 gusting 8 13.3
2014-Sep-29 20:08 175 2 gusting 8 12.8
2014-Sep-29 19:58 174 0 gusting 5 11.7
2014-Sep-29 19:48 150 0 gusting 6 10.6
2014-Sep-29 19:38 176 10.6
2014-Sep-29 19:28 198 0 gusting 6 10.6
2014-Sep-29 19:18 200 1 gusting 8 10.6
2014-Sep-29 19:08 180 2 gusting 6 10.6
2014-Sep-29 18:58 179 2 gusting 12 10.0
2014-Sep-29 18:28 166 2 gusting 8 10.0
2014-Sep-29 18:18 183 4 gusting 12 10.0
2014-Sep-29 17:48 181 2 gusting 8 10.0
2014-Sep-29 17:38 185 3 gusting 12 10.0
2014-Sep-29 17:28 182 5 gusting 15 9.4
2014-Sep-29 17:18 156 4 gusting 12 9.4
2014-Sep-29 17:08 187 1 gusting 12 9.4
2014-Sep-29 16:58 188 1 gusting 7 9.4
2014-Sep-29 16:48 184 1 gusting 13 9.4
2014-Sep-29 16:38 165 1 gusting 6 9.4
2014-Sep-29 16:28 185 1 gusting 7 9.4
2014-Sep-29 16:18 185 1 gusting 10 8.9
2014-Sep-29 16:08 178 2 gusting 6 8.9
2014-Sep-29 15:58 192 1 gusting 6 8.9
2014-Sep-29 15:48 168 1 gusting 6 8.9
2014-Sep-29 15:38 183 1 gusting 6 8.9
2014-Sep-29 15:28 178 1 gusting 6 9.4
2014-Sep-29 15:18 177 4 gusting 8 9.4
2014-Sep-29 15:08 166 2 gusting 10 9.4
2014-Sep-29 14:58 187 3 gusting 10 9.4
2014-Sep-29 14:48 172 1 gusting 6 9.4
2014-Sep-29 14:38 176 1 gusting 10 9.4
2014-Sep-29 14:08 183 4 gusting 10 9.4
2014-Sep-29 13:58 189 1 gusting 10 9.4
2014-Sep-29 13:48 184 3 gusting 12 10.0
2014-Sep-29 13:38 174 4 gusting 12 10.0
2014-Sep-29 13:28 175 4 gusting 10 10.0
2014-Sep-29 13:18 169 1 gusting 8 10.0
2014-Sep-29 13:08 172 4 gusting 8 10.6
2014-Sep-29 12:58 207 2 gusting 7 10.6
2014-Sep-29 12:48 187 2 gusting 7 10.6
2014-Sep-29 12:38 170 0 gusting 8 11.1
2014-Sep-29 12:28 160 1 gusting 7 11.1
2014-Sep-29 12:18 153 1 gusting 8 11.1
2014-Sep-29 12:08 153 1 gusting 10 11.1
2014-Sep-29 11:58 151 2 gusting 6 11.1
2014-Sep-29 11:48 156 0 gusting 12 11.7
2014-Sep-29 11:38 182 2 gusting 12 11.7
2014-Sep-29 11:28 163 6 gusting 13 11.7
2014-Sep-29 11:08 162 1 gusting 6 11.7
2014-Sep-29 10:58 185 1 gusting 8 11.7
2014-Sep-29 10:48 180 2 gusting 13 11.7
2014-Sep-29 10:38 163 1 gusting 8 11.7
2014-Sep-29 10:28 151 4 gusting 12 11.7
2014-Sep-29 10:18 149 1 gusting 11 11.7
2014-Sep-29 10:08 176 2 gusting 7 11.7
2014-Sep-29 09:58 177 3 gusting 12 11.7
2014-Sep-29 09:48 151 4 gusting 11 11.7
2014-Sep-29 09:38 127 1 gusting 6 11.7
2014-Sep-29 09:28 175 2 gusting 10 11.7
2014-Sep-29 09:18 152 2 gusting 13 11.7
2014-Sep-29 09:08 145 2 gusting 10 11.7
2014-Sep-29 08:58 168 2 gusting 6 11.1
2014-Sep-29 08:48 183 11.7
2014-Sep-29 08:38 159 0 gusting 6 11.7
2014-Sep-29 08:28 139 5 gusting 13 11.7
2014-Sep-29 08:18 147 2 gusting 7 11.7
2014-Sep-29 08:08 152 5 gusting 10 11.7
2014-Sep-29 07:58 176 0 gusting 2 11.7
2014-Sep-29 07:48 259 11.7
2014-Sep-29 07:28 022 11.7
2014-Sep-29 07:18 023 11.7
2014-Sep-29 07:08 022 11.7
2014-Sep-29 06:58 180 12.2
2014-Sep-29 06:48 180 11.7
2014-Sep-29 06:38 179 12.2
2014-Sep-29 06:28 162 11.7
2014-Sep-29 06:18 151 11.7
2014-Sep-29 06:08 143 11.7